Regional Weather Roundup
Issued by NWS Little Rock, AR

Home | Current Version | Previous Version | Graphics & Text | Print | Product List | Glossary On
Versions: 1 2 3 4 5 6 7 8 9 10 11 12 13 14 15 16 17 18 19 20 21 22 23 24 25 26 27 28 29 30 31 32 33 34 35 36 37 38 39 40 41 42 43 44 45 46 47 48 49 50
000
ASUS44 KLZK 010405
RWRLZK

WEATHER ROUNDUP FOR ARKANSAS
NATIONAL WEATHER SERVICE LITTLE ROCK AR
1100 PM CDT FRI JUL 31 2015

NOTE: "FAIR" INDICATES FEW OR NO CLOUDS BELOW 12,000 FEET WITH NO
SIGNIFICANT WEATHER AND/OR OBSTRUCTIONS TO VISIBILITY.

ARZ001-003-010-029-010500-
NORTHWEST ARKANSAS

CITY           SKY/WX    TMP DP  RH WIND       PRES   REMARKS
FAYETTEVILLE   MOCLDY    68  66  93 CALM      30.12R
FORT SMITH     MOCLDY    79  66  64 E3        30.06R
HARRISON       PTCLDY    70  63  78 SW5       30.13S
BENTONVILLE    PTCLDY    72  59  64 CALM      30.13S
ROGERS         PTCLDY    71  65  81 E3        30.13S
SILOAM SPGS    MOCLDY    70  57  64 SE3       30.10S
HIGHFILL       MOCLDY    71  62  73 CALM      30.12R
$$

ARZ004-005-016-010500-
NORTH CENTRAL ARKANSAS

CITY           SKY/WX    TMP DP  RH WIND       PRES   REMARKS
BATESVILLE     CLEAR     73  68  83 CALM      30.08S
FLIPPIN        PTCLDY    73  64  73 CALM      30.08S
MTN HOME       PTCLDY    73  65  75 CALM      30.10R
$$

ARZ040-041-010500-
WEST CENTRAL ARKANSAS

CITY           SKY/WX    TMP DP  RH WIND       PRES   REMARKS
MENA           MOCLDY    72  64  78 CALM      30.11R
MOUNT IDA      PTCLDY    72  67  84 CALM      30.08R
$$

ARZ009-017-025-026-028-010500-
NORTHEAST ARKANSAS

CITY           SKY/WX    TMP DP  RH WIND       PRES   REMARKS
JONESBORO      CLEAR     72  69  90 CALM      30.06R
NEWPORT        CLEAR     79  69  71 CALM      30.08R
WALNUT RIDGE   CLEAR     79  66  65 SW3       30.06S
BLYTHEVILLE    CLEAR     79  69  71 CALM      30.06R
$$

ARZ022-023-033-042-044-010500-
CENTRAL ARKANSAS

CITY           SKY/WX    TMP DP  RH WIND       PRES   REMARKS
LITTLE ROCK    PTCLDY    79  68  69 CALM      30.07R
N LITTLE ROCK  PTCLDY    79  66  65 NE3       30.07R
JACKSONVILLE   PTCLDY    74  67  79 W1        30.07R
SEARCY         PTCLDY    73  70  90 CALM      30.08R
HOT SPRINGS    PTCLDY    80  63  55 CALM      30.08R
RUSSELLVILLE   MOCLDY    74  69  85 CALM      30.07R
$$

ARZ036-010500-
EAST ARKANSAS

CITY           SKY/WX    TMP DP  RH WIND       PRES   REMARKS
WEST MEMPHIS   CLEAR     74  70  87 NW3       30.04S
$$

ARZ050-053-066-070-073-010500-
SOUTHWEST ARKANSAS

CITY           SKY/WX    TMP DP  RH WIND       PRES   REMARKS
ARKADELPHIA    FAIR      73  71  93 CALM      30.07R
CAMDEN         CLEAR     72  66  83 CALM      30.04F
TEXARKANA      MOCLDY    76  63  64 CALM      30.06R
EL DORADO      CLEAR     74  66  76 CALM      30.05R
DE QUEEN       MOCLDY    73  71  93 CALM      30.05R
$$

ARZ056-057-069-010500-
SOUTHEAST ARKANSAS

CITY           SKY/WX    TMP DP  RH WIND       PRES   REMARKS
PINE BLUFF     CLEAR     76  66  71 N6        30.05S
STUTTGART      CLEAR     75  64  69 MISG      30.06S
MONTICELLO     CLEAR     77  68  73 VRB3      30.04S

$$




USA.gov is the U.S. government's official web portal to all federal, state and local government web resources and services.